sat.trackr.live / text

‹ back to catalog

STARLINK-30780

NORAD 58140 · 2023-162Y

PAYLOAD ACTIVE UNKNOWN

§ Identity

Operator
Country
US
Launch date
2023-10-22
Launch site
AFETR
Launch vehicle
Mass (kg)
RCS (m²)

Purposes: comms

External: N2YO · Heavens-Above · Gunter

§ Orbital elements

Epoch: 2026-09-20T07:20:52.655136Z

Period
94.27 min
Inclination
43.0049°
Eccentricity
0.0001233
Mean motion
15.27570006 rev/d
Perigee alt
482.2 km
Apogee alt
483.9 km
Semi-major
6,861.2 km
B*
2.4108e-5
RAAN
113.1792°
Arg perigee
261.1385°
Mean anomaly
98.9327°
Rev number
16,207

§ Raw data

STARLINK-307801 58140U 23162Y   26263.30616499  .00000401  00000+0  24108-4 0  99922 58140  43.0049 113.1792 0001233 261.1385  98.9327 15.27570006162076

JSON: /api/v1/satellites/58140 · /tle

For live sub-satellite position, see the globe view (requires WebGL).

§ Visibility from observer

Set your observer location to see the next 7 days of passes ≥ 10°. The values pass through the URL so the page stays shareable.

No JS? Fill the form by hand. The geolocation button needs JavaScript.